Location: Ellerstadt
(49.4644°N, 8.2615°E)
Time: 21:18:19
(UTC+00:00)

Vanguard 1 - Pass Details

Date: 22 June 2021
Orbit: 651 x 3832 km, 34.2° (Epoch: 27 July)

Event Time Altitude Azimuth Distance (km) Brightness Sun altitude
Rises 00:55:18 0° 273° (W) 7,612 14.4 -14.6°
Reaches altitude 10° 01:01:43 10° 265° (W) 6,206 13.9 -14.2°
Maximum altitude 01:16:03 31° 213° (SSW) 3,503 12.3 -13.3°
Drops below altitude 10° 01:25:08 10° 156° (SSE) 3,885 12.7 -12.7°
Sets 01:28:06 0° 145° (SE) 4,503 13.2 -12.4°
